Flag for Poland Weather past 2 weeks in Rybnik, Poland

48 °F

Passing clouds.

Feels Like: 47 °F
Forecast: 45 / 68 °F
Wind: 3 mph from West

Location: Katowice Airport

Current Time: Oct 5, 2015 at 7:12:55 AM

Latest Report: Oct 5, 2015 at 6:30 AM

Visibility: 4 mi

Pressure: 30.01 "Hg

Humidity: 100%

Dew point: 48 °F

Location of RybnikLocation

Historic Weather in Rybnik — Graph


Rybnik temperature yesterday

Maximum temperature yesterday: 73 °F (at 3:00 PM)
Minimum temperature yesterday: 50 °F (at 6:30 AM)
Average temperature yesterday: 61 °F

Past Weeks' High & Low Weather Summary

High73 °F (Oct 4, 3:00 PM)100% (Sep 20, 5:00 AM)30.57 "Hg (Sep 20, 5:00 AM)
Low28 °F (Oct 1, 5:00 AM)32% (Oct 2, 3:00 PM)29.74 "Hg (Sep 23, 4:00 AM)
Average52 °F74%30.19 "Hg
* Reported Sep 20 5:00 AM — Oct 5 5:30 AM, Rybnik, Weather by CustomWeather, © 2015

Note: Actual official high and low records may vary slightly from our data, if they occured in-between our weather recording intervals... More about our weather records


Rybnik weather history for previous 24 hours

Time TempWeatherWind HumidityBarometerVisibility
5:30 AM
Mon, Oct 5
48 °FFog.1 mph94%30.01 "Hg3 mi
5:00 AM48 °FFog.1 mph94%30.01 "Hg2 mi
4:30 AM48 °FFog.1 mph94%30.01 "Hg2 mi
4:00 AM46 °FFog.2 mph93%30.01 "Hg2 mi
3:30 AM50 °FFog.3 mph94%30.01 "Hg2 mi
3:00 AM48 °FFog.2 mph100%29.98 "Hg2 mi
2:30 AM48 °FFog.3 mph100%29.98 "Hg2 mi
2:00 AM50 °FClear.1 mph94%29.98 "Hg4 mi
1:30 AM50 °FPassing clouds.1 mph94%29.98 "Hg4 mi
1:00 AM52 °FPassing clouds.1 mph94%30.01 "Hg5 mi
12:30 AM52 °FClear.2 mph94%30.01 "Hg10 mi
12:00 AM55 °FClear.3 mph82%30.01 "Hg10 mi
11:30 PM
Sun, Oct 4
54 °FPassing clouds.3 mph88%30.01 "HgN/A
11:00 PM55 °FClear.7 mph82%30.01 "Hg10 mi
10:30 PM55 °FClear.2 mph82%30.01 "Hg10 mi
10:00 PM57 °FClear.5 mph82%30.01 "Hg10 mi
9:30 PM59 °FClear.6 mph77%30.01 "Hg10 mi
9:00 PM59 °FClear.6 mph72%30.01 "Hg10 mi
8:30 PM59 °FClear.6 mph77%30.01 "Hg10 mi
8:00 PM61 °FClear.6 mph72%30.01 "Hg10 mi
7:30 PM63 °FClear.7 mph68%30.01 "Hg10 mi
7:00 PM64 °FSunny.8 mph60%30.01 "Hg10 mi
6:30 PM64 °FSunny.6 mph64%29.98 "Hg10 mi
6:00 PM66 °FSunny.7 mph56%29.98 "Hg10 mi
5:30 PM68 °FSunny.9 mph53%29.98 "Hg10 mi
5:00 PM70 °FSunny.14 mph46%29.98 "Hg10 mi
4:30 PM70 °FPassing clouds.14 mph50%29.98 "HgN/A
4:00 PM72 °FSunny.14 mph44%29.98 "Hg10 mi
3:30 PM72 °FPassing clouds.15 mph47%29.98 "HgN/A
3:00 PM73 °FPassing clouds.15 mph44%29.98 "HgN/A
2:30 PM72 °FSunny.14 mph47%29.98 "Hg10 mi
2:00 PM70 °FSunny.16 mph50%29.98 "Hg10 mi
1:30 PM70 °FPassing clouds.16 mph50%30.01 "HgN/A
1:00 PM70 °FSunny.15 mph50%30.01 "Hg10 mi
12:30 PM68 °FSunny.18 mph53%30.01 "Hg10 mi
12:00 PM68 °FSunny.18 mph53%30.01 "Hg10 mi
11:30 AM66 °FSunny.16 mph56%30.01 "Hg10 mi
11:00 AM66 °FSunny.15 mph56%30.01 "Hg10 mi
10:30 AM64 °FSunny.12 mph64%30.01 "Hg10 mi
10:00 AM63 °FSunny.13 mph68%30.04 "Hg10 mi
9:30 AM63 °FSunny.9 mph68%30.04 "Hg10 mi
9:00 AM59 °FPassing clouds.8 mph77%30.04 "HgN/A
8:30 AM61 °FPassing clouds.5 mph72%30.04 "HgN/A
8:00 AM57 °FSunny.5 mph77%30.01 "Hg10 mi
7:30 AM52 °FClear.6 mph88%30.01 "Hg10 mi
7:00 AM52 °FPassing clouds.3 mph88%30.01 "HgN/A
Weather by CustomWeather, © 2015

See weather overviewHow to use our weather pages